Year,Month,Day,Hour,Minute,Value (Times are PST for temperature in C)
2014,09,14,00,00,16.90
2014,09,14,00,01,16.90
2014,09,14,00,02,16.90
2014,09,14,00,03,16.90
2014,09,14,00,04,16.90
2014,09,14,00,05,16.80
2014,09,14,00,06,16.80
2014,09,14,00,07,16.80
2014,09,14,00,08,16.80
2014,09,14,00,09,16.80
2014,09,14,00,10,16.70
2014,09,14,00,11,16.70
2014,09,14,00,12,16.70
2014,09,14,00,13,16.70
2014,09,14,00,14,16.70
2014,09,14,00,15,16.70
2014,09,14,00,16,16.70
2014,09,14,00,17,16.60
2014,09,14,00,18,16.60
2014,09,14,00,19,16.60
2014,09,14,00,20,16.60
2014,09,14,00,21,16.60
2014,09,14,00,22,16.60
2014,09,14,00,23,16.60
2014,09,14,00,24,16.60
2014,09,14,00,25,16.60
2014,09,14,00,26,16.60
2014,09,14,00,27,16.50
2014,09,14,00,28,16.50
2014,09,14,00,29,16.50
2014,09,14,00,30,16.50
2014,09,14,00,31,16.50
2014,09,14,00,32,16.40
2014,09,14,00,33,16.40
2014,09,14,00,34,16.40
2014,09,14,00,35,16.30
2014,09,14,00,36,16.30
2014,09,14,00,37,16.20
2014,09,14,00,38,16.20
2014,09,14,00,39,16.10
2014,09,14,00,40,16.00
2014,09,14,00,41,16.00
2014,09,14,00,42,15.90
2014,09,14,00,43,15.90
2014,09,14,00,44,15.90
2014,09,14,00,45,15.80
2014,09,14,00,46,15.80
2014,09,14,00,47,15.80
2014,09,14,00,48,15.70
2014,09,14,00,49,15.70
2014,09,14,00,50,15.70
2014,09,14,00,51,15.70
2014,09,14,00,52,15.70
2014,09,14,00,53,15.70
2014,09,14,00,54,15.70
2014,09,14,00,55,15.70
2014,09,14,00,56,15.60
2014,09,14,00,57,15.50
2014,09,14,00,58,15.50
2014,09,14,00,59,15.40
2014,09,14,01,00,15.30
2014,09,14,01,01,15.30
2014,09,14,01,02,15.20
2014,09,14,01,03,15.20
2014,09,14,01,04,15.10
2014,09,14,01,05,15.10
2014,09,14,01,06,15.00
2014,09,14,01,07,14.90
2014,09,14,01,08,14.90
2014,09,14,01,09,14.80
2014,09,14,01,10,14.80
2014,09,14,01,11,14.70
2014,09,14,01,12,14.70
2014,09,14,01,13,14.60
2014,09,14,01,14,14.60
2014,09,14,01,15,14.50
2014,09,14,01,16,14.40
2014,09,14,01,17,14.40
2014,09,14,01,18,14.30
2014,09,14,01,19,14.30
2014,09,14,01,20,14.20
2014,09,14,01,21,14.10
2014,09,14,01,22,14.10
2014,09,14,01,23,14.10
2014,09,14,01,24,14.00
2014,09,14,01,25,14.00
2014,09,14,01,26,14.00
2014,09,14,01,27,14.00
2014,09,14,01,28,13.90
2014,09,14,01,29,13.90
2014,09,14,01,30,13.90
2014,09,14,01,31,13.90
2014,09,14,01,32,13.90
2014,09,14,01,33,14.00
2014,09,14,01,34,14.00
2014,09,14,01,35,14.00
2014,09,14,01,36,14.10
2014,09,14,01,37,14.10
2014,09,14,01,38,14.10
2014,09,14,01,39,14.10
2014,09,14,01,40,14.10
2014,09,14,01,41,14.10
2014,09,14,01,42,14.10
2014,09,14,01,43,14.10
2014,09,14,01,44,14.00
2014,09,14,01,45,14.00
2014,09,14,01,46,14.00
2014,09,14,01,47,13.90
2014,09,14,01,48,13.90
2014,09,14,01,49,13.80
2014,09,14,01,50,13.80
2014,09,14,01,51,13.80
2014,09,14,01,52,13.70
2014,09,14,01,53,13.70
2014,09,14,01,54,13.70
2014,09,14,01,55,13.70
2014,09,14,01,56,13.80
2014,09,14,01,57,13.80
2014,09,14,01,58,13.80
2014,09,14,01,59,13.80
2014,09,14,02,00,13.80
2014,09,14,02,01,13.90
2014,09,14,02,02,14.00
2014,09,14,02,03,14.10
2014,09,14,02,04,14.20
2014,09,14,02,05,14.30
2014,09,14,02,06,14.40
2014,09,14,02,07,14.40
2014,09,14,02,08,14.50
2014,09,14,02,09,14.60
2014,09,14,02,10,14.60
2014,09,14,02,11,14.60
2014,09,14,02,12,14.70
2014,09,14,02,13,14.70
2014,09,14,02,14,14.70
2014,09,14,02,15,14.80
2014,09,14,02,16,14.80
2014,09,14,02,17,14.80
2014,09,14,02,18,14.80
2014,09,14,02,19,14.80
2014,09,14,02,20,14.80
2014,09,14,02,21,14.80
2014,09,14,02,22,14.80
2014,09,14,02,23,14.80
2014,09,14,02,24,14.80
2014,09,14,02,25,14.90
2014,09,14,02,26,14.90
2014,09,14,02,27,14.90
2014,09,14,02,28,14.90
2014,09,14,02,29,15.00
2014,09,14,02,30,15.00
2014,09,14,02,31,15.00
2014,09,14,02,32,15.10
2014,09,14,02,33,15.10
2014,09,14,02,34,15.10
2014,09,14,02,35,15.20
2014,09,14,02,36,15.20
2014,09,14,02,37,15.20
2014,09,14,02,38,15.20
2014,09,14,02,39,15.20
2014,09,14,02,40,15.20
2014,09,14,02,41,15.30
2014,09,14,02,42,15.30
2014,09,14,02,43,15.30
2014,09,14,02,44,15.20
2014,09,14,02,45,15.20
2014,09,14,02,46,15.20
2014,09,14,02,47,15.20
2014,09,14,02,48,15.10
2014,09,14,02,49,15.10
2014,09,14,02,50,15.10
2014,09,14,02,51,15.10
2014,09,14,02,52,15.10
2014,09,14,02,53,15.10
2014,09,14,02,54,15.10
2014,09,14,02,55,15.10
2014,09,14,02,56,15.20
2014,09,14,02,57,15.20
2014,09,14,02,58,15.20
2014,09,14,02,59,15.20
2014,09,14,03,00,15.20
2014,09,14,03,01,15.20
2014,09,14,03,02,15.10
2014,09,14,03,03,15.10
2014,09,14,03,04,15.10
2014,09,14,03,05,15.10
2014,09,14,03,06,15.00
2014,09,14,03,07,15.00
2014,09,14,03,08,15.10
2014,09,14,03,09,15.10
2014,09,14,03,10,15.10
2014,09,14,03,11,15.10
2014,09,14,03,12,15.00
2014,09,14,03,13,15.00
2014,09,14,03,14,15.00
2014,09,14,03,15,14.90
2014,09,14,03,16,14.90
2014,09,14,03,17,14.90
2014,09,14,03,18,14.90
2014,09,14,03,19,14.80
2014,09,14,03,20,14.80
2014,09,14,03,21,14.80
2014,09,14,03,22,14.70
2014,09,14,03,23,14.70
2014,09,14,03,24,14.70
2014,09,14,03,25,14.70
2014,09,14,03,26,14.60
2014,09,14,03,27,14.60
2014,09,14,03,28,14.60
2014,09,14,03,29,14.60
2014,09,14,03,30,14.60
2014,09,14,03,31,14.60
2014,09,14,03,32,14.60
2014,09,14,03,33,14.60
2014,09,14,03,34,14.60
2014,09,14,03,35,14.60
2014,09,14,03,36,14.60
2014,09,14,03,37,14.50
2014,09,14,03,38,14.50
2014,09,14,03,39,14.50
2014,09,14,03,40,14.50
2014,09,14,03,41,14.60
2014,09,14,03,42,14.60
2014,09,14,03,43,14.60
2014,09,14,03,44,14.60
2014,09,14,03,45,14.60
2014,09,14,03,46,14.60
2014,09,14,03,47,14.60
2014,09,14,03,48,14.60
2014,09,14,03,49,14.60
2014,09,14,03,50,14.60
2014,09,14,03,51,14.60
2014,09,14,03,52,14.60
2014,09,14,03,53,14.50
2014,09,14,03,54,14.50
2014,09,14,03,55,14.50
2014,09,14,03,56,14.50
2014,09,14,03,57,14.50
2014,09,14,03,58,14.50
2014,09,14,03,59,14.50
2014,09,14,04,00,14.50
2014,09,14,04,01,14.40
2014,09,14,04,02,14.40
2014,09,14,04,03,14.40
2014,09,14,04,04,14.40
2014,09,14,04,05,14.40
2014,09,14,04,06,14.40
2014,09,14,04,07,14.40
2014,09,14,04,08,14.50
2014,09,14,04,09,14.40
2014,09,14,04,10,14.40
2014,09,14,04,11,14.40
2014,09,14,04,12,14.40
2014,09,14,04,13,14.40
2014,09,14,04,14,14.40
2014,09,14,04,15,14.40
2014,09,14,04,16,14.40
2014,09,14,04,17,14.40
2014,09,14,04,18,14.30
2014,09,14,04,19,14.30
2014,09,14,04,20,14.20
2014,09,14,04,21,14.20
2014,09,14,04,22,14.20
2014,09,14,04,23,14.20
2014,09,14,04,24,14.20
2014,09,14,04,25,14.20
2014,09,14,04,26,14.10
2014,09,14,04,27,14.20
2014,09,14,04,28,14.20
2014,09,14,04,29,14.20
2014,09,14,04,30,14.20
2014,09,14,04,31,14.20
2014,09,14,04,32,14.20
2014,09,14,04,33,14.20
2014,09,14,04,34,14.30
2014,09,14,04,35,14.30
2014,09,14,04,36,14.30
2014,09,14,04,37,14.30
2014,09,14,04,38,14.30
2014,09,14,04,39,14.30
2014,09,14,04,40,14.30
2014,09,14,04,41,14.30
2014,09,14,04,42,14.30
2014,09,14,04,43,14.30
2014,09,14,04,44,14.30
2014,09,14,04,45,14.30
2014,09,14,04,46,14.20
2014,09,14,04,47,14.20
2014,09,14,04,48,14.20
2014,09,14,04,49,14.20
2014,09,14,04,50,14.20
2014,09,14,04,51,14.20
2014,09,14,04,52,14.20
2014,09,14,04,53,14.20
2014,09,14,04,54,14.20
2014,09,14,04,55,14.20
2014,09,14,04,56,14.30
2014,09,14,04,57,14.30
2014,09,14,04,58,14.30
2014,09,14,04,59,14.30
2014,09,14,05,00,14.30
2014,09,14,05,01,14.30
2014,09,14,05,02,14.30
2014,09,14,05,03,14.20
2014,09,14,05,04,14.20
2014,09,14,05,05,14.20
2014,09,14,05,06,14.20
2014,09,14,05,07,14.10
2014,09,14,05,08,14.10
2014,09,14,05,09,14.10
2014,09,14,05,10,14.00
2014,09,14,05,11,14.00
2014,09,14,05,12,14.00
2014,09,14,05,13,14.00
2014,09,14,05,14,13.90
2014,09,14,05,15,13.90
2014,09,14,05,16,13.90
2014,09,14,05,17,13.90
2014,09,14,05,18,13.90
2014,09,14,05,19,14.00
2014,09,14,05,20,14.00
2014,09,14,05,21,14.00
2014,09,14,05,22,14.00
2014,09,14,05,23,14.00
2014,09,14,05,24,14.10
2014,09,14,05,25,14.10
2014,09,14,05,26,14.10
2014,09,14,05,27,14.10
2014,09,14,05,28,14.10
2014,09,14,05,29,14.10
2014,09,14,05,30,14.10
2014,09,14,05,31,14.20
2014,09,14,05,32,14.20
2014,09,14,05,33,14.20
2014,09,14,05,34,14.20
2014,09,14,05,35,14.20
2014,09,14,05,36,14.20
2014,09,14,05,37,14.20
2014,09,14,05,38,14.20
2014,09,14,05,39,14.20
2014,09,14,05,40,14.30
2014,09,14,05,41,14.30
2014,09,14,05,42,14.30
2014,09,14,05,43,14.30
2014,09,14,05,44,14.30
2014,09,14,05,45,14.20
2014,09,14,05,46,14.20
2014,09,14,05,47,14.20
2014,09,14,05,48,14.20
2014,09,14,05,49,14.20
2014,09,14,05,50,14.20
2014,09,14,05,51,14.20
2014,09,14,05,52,14.20
2014,09,14,05,53,14.20
2014,09,14,05,54,14.10
2014,09,14,05,55,14.10
2014,09,14,05,56,14.10
2014,09,14,05,57,14.10
2014,09,14,05,58,14.10
2014,09,14,05,59,14.10
2014,09,14,06,00,14.10
2014,09,14,06,01,14.10
2014,09,14,06,02,14.10
2014,09,14,06,03,14.10
2014,09,14,06,04,14.10
2014,09,14,06,05,14.10
2014,09,14,06,06,14.10
2014,09,14,06,07,14.20
2014,09,14,06,08,14.20
2014,09,14,06,09,14.20
2014,09,14,06,10,14.20
2014,09,14,06,11,14.20
2014,09,14,06,12,14.20
2014,09,14,06,13,14.20
2014,09,14,06,14,14.20
2014,09,14,06,15,14.10
2014,09,14,06,16,14.10
2014,09,14,06,17,14.10
2014,09,14,06,18,14.10
2014,09,14,06,19,14.00
2014,09,14,06,20,14.00
2014,09,14,06,21,14.00
2014,09,14,06,22,14.00
2014,09,14,06,23,14.10
2014,09,14,06,24,14.10
2014,09,14,06,25,14.20
2014,09,14,06,26,14.30
2014,09,14,06,27,14.50
2014,09,14,06,28,14.60
2014,09,14,06,29,14.60
2014,09,14,06,30,14.60
2014,09,14,06,31,14.60
2014,09,14,06,32,14.60
2014,09,14,06,33,14.50
2014,09,14,06,34,14.50
2014,09,14,06,35,14.50
2014,09,14,06,36,14.40
2014,09,14,06,37,14.40
2014,09,14,06,38,14.40
2014,09,14,06,39,14.40
2014,09,14,06,40,14.50
2014,09,14,06,41,14.50
2014,09,14,06,42,14.50
2014,09,14,06,43,14.50
2014,09,14,06,44,14.60
2014,09,14,06,45,14.60
2014,09,14,06,46,14.60
2014,09,14,06,47,14.60
2014,09,14,06,48,14.60
2014,09,14,06,49,14.70
2014,09,14,06,50,14.70
2014,09,14,06,51,14.70
2014,09,14,06,52,14.70
2014,09,14,06,53,14.70
2014,09,14,06,54,14.70
2014,09,14,06,55,14.60
2014,09,14,06,56,14.60
2014,09,14,06,57,14.50
2014,09,14,06,58,14.50
2014,09,14,06,59,14.40
2014,09,14,07,00,14.40
2014,09,14,07,01,14.30
2014,09,14,07,02,14.20
2014,09,14,07,03,14.20
2014,09,14,07,04,14.20
2014,09,14,07,05,14.20
2014,09,14,07,06,14.20
2014,09,14,07,07,14.20
2014,09,14,07,08,14.20
2014,09,14,07,09,14.20
2014,09,14,07,10,14.20
2014,09,14,07,11,14.30
2014,09,14,07,12,14.30
2014,09,14,07,13,14.30
2014,09,14,07,14,14.40
2014,09,14,07,15,14.40
2014,09,14,07,16,14.40
2014,09,14,07,17,14.40
2014,09,14,07,18,14.40
2014,09,14,07,19,14.50
2014,09,14,07,20,14.50
2014,09,14,07,21,14.60
2014,09,14,07,22,14.60
2014,09,14,07,23,14.60
2014,09,14,07,24,14.60
2014,09,14,07,25,14.50
2014,09,14,07,26,14.50
2014,09,14,07,27,14.50
2014,09,14,07,28,14.40
2014,09,14,07,29,14.40
2014,09,14,07,30,14.40
2014,09,14,07,31,14.30
2014,09,14,07,32,14.30
2014,09,14,07,33,14.20
2014,09,14,07,34,14.20
2014,09,14,07,35,14.10
2014,09,14,07,36,14.00
2014,09,14,07,37,13.80
2014,09,14,07,38,13.80
2014,09,14,07,39,13.80
2014,09,14,07,40,13.70
2014,09,14,07,41,13.70
2014,09,14,07,42,13.60
2014,09,14,07,43,13.60
2014,09,14,07,44,13.60
2014,09,14,07,45,13.50
2014,09,14,07,46,13.50
2014,09,14,07,47,13.50
2014,09,14,07,48,13.50
2014,09,14,07,49,13.40
2014,09,14,07,50,13.40
2014,09,14,07,51,13.40
2014,09,14,07,52,13.30
2014,09,14,07,53,13.30
2014,09,14,07,54,13.30
2014,09,14,07,55,13.20
2014,09,14,07,56,13.20
2014,09,14,07,57,13.20
2014,09,14,07,58,13.20
2014,09,14,07,59,13.20
2014,09,14,08,00,13.20
2014,09,14,08,01,13.20
2014,09,14,08,02,13.30
2014,09,14,08,03,13.30
2014,09,14,08,04,13.40
2014,09,14,08,05,13.50
2014,09,14,08,06,13.50
2014,09,14,08,07,13.60
2014,09,14,08,08,13.50
2014,09,14,08,09,13.40
2014,09,14,08,10,13.40
2014,09,14,08,11,13.30
2014,09,14,08,12,13.20
2014,09,14,08,13,13.20
2014,09,14,08,14,13.20
2014,09,14,08,15,13.20
2014,09,14,08,16,13.20
2014,09,14,08,17,13.20
2014,09,14,08,18,13.20
2014,09,14,08,19,13.20
2014,09,14,08,20,13.20
2014,09,14,08,21,13.30
2014,09,14,08,22,13.30
2014,09,14,08,23,13.30
2014,09,14,08,24,13.40
2014,09,14,08,25,13.50
2014,09,14,08,26,13.60
2014,09,14,08,27,13.70
2014,09,14,08,28,13.90
2014,09,14,08,29,14.10
2014,09,14,08,30,14.20
2014,09,14,08,31,14.40
2014,09,14,08,32,14.60
2014,09,14,08,33,14.70
2014,09,14,08,34,14.90
2014,09,14,08,35,15.10
2014,09,14,08,36,15.20
2014,09,14,08,37,15.40
2014,09,14,08,38,15.50
2014,09,14,08,39,15.60
2014,09,14,08,40,15.60
2014,09,14,08,41,15.60
2014,09,14,08,42,15.60
2014,09,14,08,43,15.60
2014,09,14,08,44,15.60
2014,09,14,08,45,15.60
2014,09,14,08,46,15.60
2014,09,14,08,47,15.60
2014,09,14,08,48,15.70
2014,09,14,08,49,15.70
2014,09,14,08,50,15.70
2014,09,14,08,51,15.80
2014,09,14,08,52,15.80
2014,09,14,08,53,15.80
2014,09,14,08,54,15.90
2014,09,14,08,55,15.90
2014,09,14,08,56,15.90
2014,09,14,08,57,16.00
2014,09,14,08,58,16.00
2014,09,14,08,59,16.10
2014,09,14,09,00,16.20
2014,09,14,09,01,16.30
2014,09,14,09,02,16.40
2014,09,14,09,03,16.50
2014,09,14,09,04,16.60
2014,09,14,09,05,16.60
2014,09,14,09,06,16.70
2014,09,14,09,07,16.80
2014,09,14,09,08,16.90
2014,09,14,09,09,17.00
2014,09,14,09,10,17.20
2014,09,14,09,11,17.30
2014,09,14,09,12,17.30
2014,09,14,09,13,17.30
2014,09,14,09,14,17.40
2014,09,14,09,15,17.30
2014,09,14,09,16,17.30
2014,09,14,09,17,17.30
2014,09,14,09,18,17.30
2014,09,14,09,19,17.30
2014,09,14,09,20,17.30
2014,09,14,09,21,17.40
2014,09,14,09,22,17.50
2014,09,14,09,23,17.50
2014,09,14,09,24,17.60
2014,09,14,09,25,17.60
2014,09,14,09,26,17.70
2014,09,14,09,27,17.80
2014,09,14,09,28,17.80
2014,09,14,09,29,17.80
2014,09,14,09,30,17.80
2014,09,14,09,31,17.70
2014,09,14,09,32,17.80
2014,09,14,09,33,17.80
2014,09,14,09,34,17.80
2014,09,14,09,35,17.80
2014,09,14,09,36,17.80
2014,09,14,09,37,17.90
2014,09,14,09,38,17.90
2014,09,14,09,39,18.00
2014,09,14,09,40,18.00
2014,09,14,09,41,18.10
2014,09,14,09,42,18.30
2014,09,14,09,43,18.40
2014,09,14,09,44,18.50
2014,09,14,09,45,18.60
2014,09,14,09,46,18.70
2014,09,14,09,47,18.70
2014,09,14,09,48,18.80
2014,09,14,09,49,18.90
2014,09,14,09,50,19.00
2014,09,14,09,51,19.10
2014,09,14,09,52,19.20
2014,09,14,09,53,19.30
2014,09,14,09,54,19.40
2014,09,14,09,55,19.60
2014,09,14,09,56,19.70
2014,09,14,09,57,19.70
2014,09,14,09,58,19.80
2014,09,14,09,59,19.90
2014,09,14,10,00,20.00
2014,09,14,10,01,20.10
2014,09,14,10,02,20.10
2014,09,14,10,03,20.20
2014,09,14,10,04,20.20
2014,09,14,10,05,20.20
2014,09,14,10,06,20.30
2014,09,14,10,07,20.30
2014,09,14,10,08,20.40
2014,09,14,10,09,20.50
2014,09,14,10,10,20.50
2014,09,14,10,11,20.60
2014,09,14,10,12,20.50
2014,09,14,10,13,20.50
2014,09,14,10,14,20.60
2014,09,14,10,15,20.60
2014,09,14,10,16,20.60
2014,09,14,10,17,20.60
2014,09,14,10,18,20.60
2014,09,14,10,19,20.70
2014,09,14,10,20,20.80
2014,09,14,10,21,20.90
2014,09,14,10,22,20.90
2014,09,14,10,23,21.00
2014,09,14,10,24,21.10
2014,09,14,10,25,21.10
2014,09,14,10,26,21.20
2014,09,14,10,27,21.30
2014,09,14,10,28,21.30
2014,09,14,10,29,21.40
2014,09,14,10,30,21.50
2014,09,14,10,31,21.50
2014,09,14,10,32,21.60
2014,09,14,10,33,21.70
2014,09,14,10,34,21.70
2014,09,14,10,35,21.80
2014,09,14,10,36,21.80
2014,09,14,10,37,21.80
2014,09,14,10,38,21.70
2014,09,14,10,39,21.60
2014,09,14,10,40,21.60
2014,09,14,10,41,21.50
2014,09,14,10,42,21.40
2014,09,14,10,43,21.30
2014,09,14,10,44,21.20
2014,09,14,10,45,21.10
2014,09,14,10,46,21.10
2014,09,14,10,47,21.00
2014,09,14,10,48,20.90
2014,09,14,10,49,20.90
2014,09,14,10,50,20.80
2014,09,14,10,51,20.80
2014,09,14,10,52,20.80
2014,09,14,10,53,20.70
2014,09,14,10,54,20.70
2014,09,14,10,55,20.70
2014,09,14,10,56,20.70
2014,09,14,10,57,20.70
2014,09,14,10,58,20.60
2014,09,14,10,59,20.60
2014,09,14,11,00,20.60
2014,09,14,11,01,20.60
2014,09,14,11,02,20.50
2014,09,14,11,03,20.50
2014,09,14,11,04,20.40
2014,09,14,11,05,20.40
2014,09,14,11,06,20.40
2014,09,14,11,07,20.40
2014,09,14,11,08,20.40
2014,09,14,11,09,20.40
2014,09,14,11,10,20.40
2014,09,14,11,11,20.50
2014,09,14,11,12,20.50
2014,09,14,11,13,20.60
2014,09,14,11,14,20.60
2014,09,14,11,15,20.60
2014,09,14,11,16,20.60
2014,09,14,11,17,20.60
2014,09,14,11,18,20.60
2014,09,14,11,19,20.70
2014,09,14,11,20,20.70
2014,09,14,11,21,20.70
2014,09,14,11,22,20.80
2014,09,14,11,23,20.80
2014,09,14,11,24,20.90
2014,09,14,11,25,21.00
2014,09,14,11,26,21.00
2014,09,14,11,27,21.10
2014,09,14,11,28,21.10
2014,09,14,11,29,21.20
2014,09,14,11,30,21.20
2014,09,14,11,31,21.30
2014,09,14,11,32,21.40
2014,09,14,11,33,21.40
2014,09,14,11,34,21.40
2014,09,14,11,35,21.50
2014,09,14,11,36,21.50
2014,09,14,11,37,21.50
2014,09,14,11,38,21.60
2014,09,14,11,39,21.60
2014,09,14,11,40,21.60
2014,09,14,11,41,21.50
2014,09,14,11,42,21.50
2014,09,14,11,43,21.50
2014,09,14,11,44,21.50
2014,09,14,11,45,21.60
2014,09,14,11,46,21.70
2014,09,14,11,47,21.70
2014,09,14,11,48,21.70
2014,09,14,11,49,21.80
2014,09,14,11,50,21.90
2014,09,14,11,51,22.00
2014,09,14,11,52,22.10
2014,09,14,11,53,22.20
2014,09,14,11,54,22.20
2014,09,14,11,55,22.30
2014,09,14,11,56,22.30
2014,09,14,11,57,22.30
2014,09,14,11,58,22.30
2014,09,14,11,59,22.40
2014,09,14,12,00,22.40
2014,09,14,12,01,22.50
2014,09,14,12,02,22.60
2014,09,14,12,03,22.70
2014,09,14,12,04,22.70
2014,09,14,12,05,22.70
2014,09,14,12,06,22.70
2014,09,14,12,07,22.70
2014,09,14,12,08,22.70
2014,09,14,12,09,22.80
2014,09,14,12,10,22.80
2014,09,14,12,11,22.90
2014,09,14,12,12,22.90
2014,09,14,12,13,22.80
2014,09,14,12,14,22.80
2014,09,14,12,15,22.70
2014,09,14,12,16,22.60
2014,09,14,12,17,22.60
2014,09,14,12,18,22.60
2014,09,14,12,19,22.60
2014,09,14,12,20,22.60
2014,09,14,12,21,22.60
2014,09,14,12,22,22.60
2014,09,14,12,23,22.60
2014,09,14,12,24,22.60
2014,09,14,12,25,22.60
2014,09,14,12,26,22.60
2014,09,14,12,27,22.60
2014,09,14,12,28,22.60
2014,09,14,12,29,22.60
2014,09,14,12,30,22.70
2014,09,14,12,31,22.70
2014,09,14,12,32,22.80
2014,09,14,12,33,22.80
2014,09,14,12,34,22.80
2014,09,14,12,35,22.90
2014,09,14,12,36,22.90
2014,09,14,12,37,23.00
2014,09,14,12,38,23.10
2014,09,14,12,39,23.10
2014,09,14,12,40,23.10
2014,09,14,12,41,23.00
2014,09,14,12,42,22.90
2014,09,14,12,43,22.80
2014,09,14,12,44,22.80
2014,09,14,12,45,22.70
2014,09,14,12,46,22.70
2014,09,14,12,47,22.70
2014,09,14,12,48,22.70
2014,09,14,12,49,22.70
2014,09,14,12,50,22.70
2014,09,14,12,51,22.70
2014,09,14,12,52,22.60
2014,09,14,12,53,22.60
2014,09,14,12,54,22.60
2014,09,14,12,55,22.60
2014,09,14,12,56,22.60
2014,09,14,12,57,22.70
2014,09,14,12,58,22.70
2014,09,14,12,59,22.70
2014,09,14,13,00,22.80
2014,09,14,13,01,22.80
2014,09,14,13,02,22.80
2014,09,14,13,03,22.80
2014,09,14,13,04,22.80
2014,09,14,13,05,22.80
2014,09,14,13,06,22.80
2014,09,14,13,07,22.80
2014,09,14,13,08,22.80
2014,09,14,13,09,22.80
2014,09,14,13,10,22.80
2014,09,14,13,11,22.70
2014,09,14,13,12,22.70
2014,09,14,13,13,22.70
2014,09,14,13,14,22.70
2014,09,14,13,15,22.70
2014,09,14,13,16,22.70
2014,09,14,13,17,22.70
2014,09,14,13,18,22.70
2014,09,14,13,19,22.70
2014,09,14,13,20,22.70
2014,09,14,13,21,22.70
2014,09,14,13,22,22.70
2014,09,14,13,23,22.70
2014,09,14,13,24,22.80
2014,09,14,13,25,22.90
2014,09,14,13,26,22.90
2014,09,14,13,27,22.90
2014,09,14,13,28,23.00
2014,09,14,13,29,23.00
2014,09,14,13,30,23.10
2014,09,14,13,31,23.10
2014,09,14,13,32,23.10
2014,09,14,13,33,23.10
2014,09,14,13,34,23.10
2014,09,14,13,35,23.10
2014,09,14,13,36,23.10
2014,09,14,13,37,23.10
2014,09,14,13,38,23.20
2014,09,14,13,39,23.20
2014,09,14,13,40,23.20
2014,09,14,13,41,23.20
2014,09,14,13,42,23.20
2014,09,14,13,43,23.20
2014,09,14,13,44,23.20
2014,09,14,13,45,23.20
2014,09,14,13,46,23.20
2014,09,14,13,47,23.20
2014,09,14,13,48,23.30
2014,09,14,13,49,23.30
2014,09,14,13,50,23.30
2014,09,14,13,51,23.30
2014,09,14,13,52,23.20
2014,09,14,13,53,23.20
2014,09,14,13,54,23.20
2014,09,14,13,55,23.20
2014,09,14,13,56,23.30
2014,09,14,13,57,23.30
2014,09,14,13,58,23.30
2014,09,14,13,59,23.40
2014,09,14,14,00,23.40
2014,09,14,14,01,23.50
2014,09,14,14,02,23.50
2014,09,14,14,03,23.50
2014,09,14,14,04,23.50
2014,09,14,14,05,23.60
2014,09,14,14,06,23.60
2014,09,14,14,07,23.60
2014,09,14,14,08,23.70
2014,09,14,14,09,23.70
2014,09,14,14,10,23.70
2014,09,14,14,11,23.70
2014,09,14,14,12,23.60
2014,09,14,14,13,23.60
2014,09,14,14,14,23.60
2014,09,14,14,15,23.60
2014,09,14,14,16,23.60
2014,09,14,14,17,23.70
2014,09,14,14,18,23.70
2014,09,14,14,19,23.70
2014,09,14,14,20,23.70
2014,09,14,14,21,23.80
2014,09,14,14,22,23.80
2014,09,14,14,23,23.80
2014,09,14,14,24,23.80
2014,09,14,14,25,23.90
2014,09,14,14,26,23.90
2014,09,14,14,27,23.90
2014,09,14,14,28,23.90
2014,09,14,14,29,23.90
2014,09,14,14,30,23.90
2014,09,14,14,31,23.90
2014,09,14,14,32,24.00
2014,09,14,14,33,24.00
2014,09,14,14,34,24.10
2014,09,14,14,35,24.10
2014,09,14,14,36,24.10
2014,09,14,14,37,24.10
2014,09,14,14,38,24.10
2014,09,14,14,39,24.10
2014,09,14,14,40,24.10
2014,09,14,14,41,24.20
2014,09,14,14,42,24.10
2014,09,14,14,43,24.20
2014,09,14,14,44,24.20
2014,09,14,14,45,24.20
2014,09,14,14,46,24.20
2014,09,14,14,47,24.30
2014,09,14,14,48,24.30
2014,09,14,14,49,24.30
2014,09,14,14,50,24.40
2014,09,14,14,51,24.40
2014,09,14,14,52,24.40
2014,09,14,14,53,24.40
2014,09,14,14,54,24.50
2014,09,14,14,55,24.50
2014,09,14,14,56,24.50
2014,09,14,14,57,24.50
2014,09,14,14,58,24.50
2014,09,14,14,59,24.50
2014,09,14,15,00,24.50
2014,09,14,15,01,24.50
2014,09,14,15,02,24.50
2014,09,14,15,03,24.50
2014,09,14,15,04,24.60
2014,09,14,15,05,24.60
2014,09,14,15,06,24.60
2014,09,14,15,07,24.70
2014,09,14,15,08,24.70
2014,09,14,15,09,24.80
2014,09,14,15,10,24.80
2014,09,14,15,11,24.80
2014,09,14,15,12,24.80
2014,09,14,15,13,24.90
2014,09,14,15,14,24.90
2014,09,14,15,15,24.90
2014,09,14,15,16,25.00
2014,09,14,15,17,25.00
2014,09,14,15,18,25.10
2014,09,14,15,19,25.00
2014,09,14,15,20,25.00
2014,09,14,15,21,25.00
2014,09,14,15,22,25.00
2014,09,14,15,23,24.90
2014,09,14,15,24,24.90
2014,09,14,15,25,24.90
2014,09,14,15,26,24.90
2014,09,14,15,27,24.90
2014,09,14,15,28,24.90
2014,09,14,15,29,24.80
2014,09,14,15,30,24.90
2014,09,14,15,31,24.90
2014,09,14,15,32,24.90
2014,09,14,15,33,24.90
2014,09,14,15,34,24.90
2014,09,14,15,35,24.90
2014,09,14,15,36,24.80
2014,09,14,15,37,24.80
2014,09,14,15,38,24.90
2014,09,14,15,39,24.90
2014,09,14,15,40,24.90
2014,09,14,15,41,24.90
2014,09,14,15,42,24.90
2014,09,14,15,43,25.00
2014,09,14,15,44,25.00
2014,09,14,15,45,25.00
2014,09,14,15,46,25.10
2014,09,14,15,47,25.10
2014,09,14,15,48,25.10
2014,09,14,15,49,25.10
2014,09,14,15,50,25.10
2014,09,14,15,51,25.10
2014,09,14,15,52,25.10
2014,09,14,15,53,25.10
2014,09,14,15,54,25.10
2014,09,14,15,55,25.10
2014,09,14,15,56,25.10
2014,09,14,15,57,25.10
2014,09,14,15,58,25.10
2014,09,14,15,59,25.10
2014,09,14,16,00,25.10
2014,09,14,16,01,25.20
2014,09,14,16,02,25.20
2014,09,14,16,03,25.30
2014,09,14,16,04,25.30
2014,09,14,16,05,25.30
2014,09,14,16,06,25.30
2014,09,14,16,07,25.30
2014,09,14,16,08,25.30
2014,09,14,16,09,25.30
2014,09,14,16,10,25.30
2014,09,14,16,11,25.30
2014,09,14,16,12,25.30
2014,09,14,16,13,25.30
2014,09,14,16,14,25.30
2014,09,14,16,15,25.40
2014,09,14,16,16,25.40
2014,09,14,16,17,25.40
2014,09,14,16,18,25.40
2014,09,14,16,19,25.40
2014,09,14,16,20,25.40
2014,09,14,16,21,25.40
2014,09,14,16,22,25.40
2014,09,14,16,23,25.50
2014,09,14,16,24,25.50
2014,09,14,16,25,25.50
2014,09,14,16,26,25.50
2014,09,14,16,27,25.50
2014,09,14,16,28,25.60
2014,09,14,16,29,25.60
2014,09,14,16,30,25.50
2014,09,14,16,31,25.50
2014,09,14,16,32,25.50
2014,09,14,16,33,25.50
2014,09,14,16,34,25.50
2014,09,14,16,35,25.40
2014,09,14,16,36,25.40
2014,09,14,16,37,25.50
2014,09,14,16,38,25.50
2014,09,14,16,39,25.60
2014,09,14,16,40,25.60
2014,09,14,16,41,25.60
2014,09,14,16,42,25.60
2014,09,14,16,43,25.60
2014,09,14,16,44,25.60
2014,09,14,16,45,25.60
2014,09,14,16,46,25.60
2014,09,14,16,47,25.50
2014,09,14,16,48,25.50
2014,09,14,16,49,25.40
2014,09,14,16,50,25.40
2014,09,14,16,51,25.40
2014,09,14,16,52,25.40
2014,09,14,16,53,25.40
2014,09,14,16,54,25.40
2014,09,14,16,55,25.40
2014,09,14,16,56,25.50
2014,09,14,16,57,25.50
2014,09,14,16,58,25.50
2014,09,14,16,59,25.60
2014,09,14,17,00,25.60
2014,09,14,17,01,25.60
2014,09,14,17,02,25.60
2014,09,14,17,03,25.60
2014,09,14,17,04,25.60
2014,09,14,17,05,25.60
2014,09,14,17,06,25.60
2014,09,14,17,07,25.60
2014,09,14,17,08,25.60
2014,09,14,17,09,25.60
2014,09,14,17,10,25.60
2014,09,14,17,11,25.60
2014,09,14,17,12,25.60
2014,09,14,17,13,25.60
2014,09,14,17,14,25.60
2014,09,14,17,15,25.60
2014,09,14,17,16,25.70
2014,09,14,17,17,25.70
2014,09,14,17,18,25.60
2014,09,14,17,19,25.60